Fort Yukon, AK

12:49 PM AKST on December 13, 2017 (GMT -0900)
Fort Yukon

Weather History for PFYU - June, 2013

Change the Weather History Date:

Sunday, June 2, 2013

  Actual Average Record
Temperature  
Mean Temperature 58 °F -  
Max Temperature 69 °F 63 °F 78 °F (2007)
Min Temperature 46 °F 43 °F 32 °F (1997)
Degree Days  
Heating Degree Days 8    
Growing Degree Days 8 (Base 50)    
Moisture  
Dew Point 34 °F    
Average Humidity 41    
Maximum Humidity 67    
Minimum Humidity 25    
Precipitation  
Precipitation 0.00 in - - ()
Sea Level Pressure  
Sea Level Pressure 30.04 in    
Wind  
Wind Speed 5 mph (NNE)    
Max Wind Speed 10 mph    
Max Gust Speed -    
Visibility 10 miles    
Events      
Averages and records for this station are not official NWS values.
T = Trace of Precipitation, MM = Missing Value Source: NWS Daily Summary

Daily Weather History Graph

Daily Weather History Graph

Search for Another Location

Airport or City:

Trip Planner

Search our weather history database for the weather conditions in past years. The results will help you decide how hot, cold, wet, or windy it might be!

Date:

Astronomy

Jun. 02, 2013 Rise Set
Actual Time 2:21 AM AKDT 1:04 AM AKDT
Civil Twilight Sun does not rise Sun does not rise
Nautical Twilight Sun does not rise Sun does not rise
Astronomical Twilight Sun does not rise Sun does not rise
Moon 2:20 AM AKDT (6/2) 4:26 PM AKDT (6/2)
Length of Visible Light 24h 00m
Length of Day
22h 42m
Waning Crescent, 29% of the Moon is Illuminated
Jun 2
Waning Crescent
Jun 8
New
Jun 16
First Quarter
Jun 23
Full
Jun 29
Last Quarter

Hourly Weather History & Observations

Time (AKDT) Temp. Windchill Dew Point Humidity Pressure Visibility Wind Dir Wind Speed Gust Speed Precip Events Conditions
12:16 AM 55.4 °F - 30.2 °F 38% 30.19 in 10.0 mi East 4.6 mph - N/A   Clear
12:36 AM 53.6 °F - 30.2 °F 41% 30.19 in 10.0 mi ENE 3.5 mph - N/A   Clear
12:56 AM 51.8 °F - 30.2 °F 44% 30.19 in 10.0 mi ENE 5.8 mph - N/A   Clear
1:16 AM 51.8 °F - 30.2 °F 44% 30.19 in 10.0 mi ENE 3.5 mph - N/A   Clear
1:36 AM 48.2 °F - 33.8 °F 58% 30.19 in 10.0 mi ENE 5.8 mph - N/A   Clear
1:56 AM 50.0 °F - 30.2 °F 47% 30.19 in 10.0 mi ENE 3.5 mph - N/A   Clear
2:16 AM 48.2 °F - 30.2 °F 50% 30.18 in 10.0 mi ENE 5.8 mph - N/A   Clear
2:36 AM 48.2 °F - 30.2 °F 50% 30.18 in 10.0 mi ENE 4.6 mph - N/A   Clear
2:56 AM 46.4 °F 42.9 °F 30.2 °F 53% 30.18 in 10.0 mi NE 6.9 mph - N/A   Clear
3:16 AM 46.4 °F 42.4 °F 30.2 °F 53% 30.18 in 10.0 mi NE 8.1 mph - N/A   Clear
3:36 AM 46.4 °F 42.9 °F 30.2 °F 53% 30.17 in 10.0 mi NE 6.9 mph - N/A   Clear
3:56 AM 46.4 °F 42.4 °F 30.2 °F 53% 30.17 in 10.0 mi NE 8.1 mph - N/A   Clear
4:16 AM 46.4 °F 41.9 °F 30.2 °F 53% 30.16 in 10.0 mi NE 9.2 mph - N/A   Clear
4:36 AM 46.4 °F 41.5 °F 30.2 °F 53% 30.16 in 10.0 mi NE 10.4 mph - N/A   Clear
4:56 AM 46.4 °F 41.5 °F 30.2 °F 53% 30.16 in 10.0 mi NE 10.4 mph - N/A   Clear
5:16 AM 46.4 °F 41.5 °F 30.2 °F 53% 30.15 in 10.0 mi NE 10.4 mph - N/A   Clear
5:36 AM 46.4 °F 41.5 °F 30.2 °F 53% 30.14 in 10.0 mi NE 10.4 mph - N/A   Clear
6:16 AM 46.4 °F 42.9 °F 30.2 °F 53% 30.14 in 10.0 mi NE 6.9 mph - N/A   Clear
6:36 AM 48.2 °F - 30.2 °F 50% 30.14 in 10.0 mi NE 8.1 mph - N/A   Clear
6:56 AM 48.2 °F - 30.2 °F 50% 30.13 in 10.0 mi NE 9.2 mph - N/A   Clear
7:16 AM 48.2 °F - 30.2 °F 50% 30.13 in 10.0 mi ENE 6.9 mph - N/A   Clear
7:36 AM 51.8 °F - 30.2 °F 44% 30.13 in 10.0 mi ENE 5.8 mph - N/A   Clear
7:56 AM 51.8 °F - 30.2 °F 44% 30.12 in 10.0 mi NE 8.1 mph - N/A   Clear
8:16 AM 51.8 °F - 30.2 °F 44% 30.12 in 10.0 mi NE 6.9 mph - N/A   Clear
8:36 AM 53.6 °F - 30.2 °F 41% 30.11 in 10.0 mi NNE 8.1 mph - N/A   Clear
8:56 AM 53.6 °F - 32.0 °F 44% 30.11 in 10.0 mi NE 6.9 mph - N/A   Clear
9:16 AM 53.6 °F - 32.0 °F 44% 30.11 in 10.0 mi NNE 8.1 mph - N/A   Clear
9:36 AM 55.4 °F - 32.0 °F 41% 30.10 in 10.0 mi NNE 6.9 mph - N/A   Clear
9:56 AM 55.4 °F - 33.8 °F 44% 30.10 in 10.0 mi NE 6.9 mph - N/A   Clear
10:16 AM 55.4 °F - 32.0 °F 41% 30.09 in 10.0 mi NNE 6.9 mph - N/A   Clear
10:36 AM 57.2 °F - 33.8 °F 41% 30.08 in 10.0 mi NE 8.1 mph - N/A   Clear
10:56 AM 57.2 °F - 33.8 °F 41% 30.08 in 10.0 mi NNE 8.1 mph - N/A   Clear
11:16 AM 59.0 °F - 33.8 °F 39% 30.07 in 6.0 mi East 5.8 mph - N/A   Clear
11:36 AM 59.0 °F - 35.6 °F 42% 30.06 in 10.0 mi NE 5.8 mph - N/A   Clear
11:56 AM 60.8 °F - 35.6 °F 39% 30.06 in 10.0 mi Calm Calm - N/A   Clear
12:16 PM 60.8 °F - 35.6 °F 39% 30.05 in 10.0 mi Calm Calm - N/A   Clear
12:36 PM 62.6 °F - 35.6 °F 37% 30.04 in 10.0 mi NE 4.6 mph - N/A   Clear
12:56 PM 62.6 °F - 37.4 °F 39% 30.04 in 10.0 mi NNW 4.6 mph - N/A   Clear
1:16 PM 64.4 °F - 37.4 °F 37% 30.03 in 10.0 mi North 4.6 mph - N/A   Clear
1:36 PM 64.4 °F - 37.4 °F 37% 30.02 in 10.0 mi WNW 4.6 mph - N/A   Clear
1:56 PM 64.4 °F - 37.4 °F 37% 30.01 in 10.0 mi West 5.8 mph - N/A   Clear
2:16 PM 64.4 °F - 39.2 °F 40% 30.01 in 10.0 mi West 4.6 mph - N/A   Clear
2:36 PM 66.2 °F - 39.2 °F 37% 30.00 in 10.0 mi WSW 3.5 mph - N/A   Clear
2:56 PM 66.2 °F - 37.4 °F 35% 30.00 in 10.0 mi WSW 4.6 mph - N/A   Clear
3:16 PM 66.2 °F - 39.2 °F 37% 29.99 in 10.0 mi WNW 3.5 mph - N/A   Clear
3:36 PM 68.0 °F - 39.2 °F 35% 29.98 in 10.0 mi WNW 6.9 mph - N/A   Clear
3:56 PM 66.2 °F - 39.2 °F 37% 29.97 in 10.0 mi WNW 4.6 mph - N/A   Clear
4:16 PM 69.8 °F - 39.2 °F 33% 29.96 in 10.0 mi WNW 4.6 mph - N/A   Clear
4:36 PM 69.8 °F - 39.2 °F 33% 29.95 in 10.0 mi WNW 5.8 mph - N/A   Clear
4:56 PM 68.0 °F - 39.2 °F 35% 29.94 in 10.0 mi North 4.6 mph - N/A   Clear
5:16 PM 69.8 °F - 37.4 °F 31% 29.94 in 10.0 mi WNW 3.5 mph - N/A   Clear
5:36 PM 69.8 °F - 37.4 °F 31% 29.93 in 10.0 mi Calm Calm - N/A   Clear
5:56 PM 69.8 °F - 39.2 °F 33% 29.93 in 10.0 mi WNW 4.6 mph - N/A   Clear
6:16 PM 69.8 °F - 35.6 °F 28% 29.92 in 10.0 mi NNE 5.8 mph - N/A   Clear
6:36 PM 69.8 °F - 35.6 °F 28% 29.91 in 10.0 mi NW 4.6 mph - N/A   Clear
6:56 PM 69.8 °F - 32.0 °F 25% 29.91 in 10.0 mi WNW 5.8 mph - N/A   Clear
7:16 PM 69.8 °F - 33.8 °F 27% 29.90 in 10.0 mi WNW 4.6 mph - N/A   Clear
7:36 PM 69.8 °F - 35.6 °F 28% 29.89 in 10.0 mi Calm Calm - N/A   Clear
7:56 PM 69.8 °F - 35.6 °F 28% 29.89 in 10.0 mi WSW 3.5 mph - N/A   Clear
8:16 PM 69.8 °F - 33.8 °F 27% 29.89 in 10.0 mi WSW 4.6 mph - N/A   Clear
8:36 PM 69.8 °F - 37.4 °F 31% 29.89 in 10.0 mi West 5.8 mph - N/A   Clear
8:56 PM 69.8 °F - 35.6 °F 28% 29.88 in 10.0 mi WNW 4.6 mph - N/A   Clear
9:16 PM 69.8 °F - 35.6 °F 28% 29.88 in 10.0 mi West 4.6 mph - N/A   Clear
9:36 PM 68.0 °F - 35.6 °F 30% 29.88 in 10.0 mi West 5.8 mph - N/A   Clear
9:56 PM 66.2 °F - 35.6 °F 32% 29.88 in 10.0 mi Calm Calm - N/A   Clear
10:16 PM 64.4 °F - 39.2 °F 40% 29.88 in 10.0 mi Calm Calm - N/A   Clear
10:36 PM 62.6 °F - 39.2 °F 42% 29.88 in 10.0 mi Calm Calm - N/A   Clear
10:56 PM 60.8 °F - 44.6 °F 55% 29.88 in 10.0 mi Calm Calm - N/A   Clear
11:16 PM 60.8 °F - 42.8 °F 52% 29.88 in 10.0 mi Calm Calm - N/A   Clear
11:36 PM 59.0 °F - 41.0 °F 51% 29.87 in 10.0 mi Calm Calm - N/A   Clear
11:56 PM 57.2 °F - 46.4 °F 67% 29.86 in 10.0 mi Calm Calm - N/A   Clear